Location: ??????
(41.3164°N, 22.6615°E)
Time: 20:38:08
(UTC+00:00)

HJ-1C - Pass Details

Date: 16 October 2021
Orbit: 423 x 433 km, 97.1° (Epoch: 29 November)

Event Time Altitude Azimuth Distance (km) Brightness Sun altitude
Exits shadow 17:19:02 48° 139° (SE) 560 3.5 -18.1°
Maximum altitude 17:19:45 68° 77° (ENE) 460 3.1 -18.2°
Drops below altitude 10° 17:22:59 10° 354° (N) 1,522 6.2 -18.8°
Sets 17:25:00 0° 351° (N) 2,394 7.3 -19.2°
